Location: Clanezzo
(45.7500°N, 9.6000°E)
Time: 01:14:27
(UTC+00:00)

USA 308 - Pass Details

Date: 25 September 2021
Orbit: 566 x 573 km, 54.0° (Epoch: 23 September)

Event Time Altitude Azimuth Distance (km) Brightness Sun altitude
Rises 17:43:03 0° 290° (WNW) 2,768 8.3 -6.0°
Reaches altitude 10° 17:45:35 10° 303° (WNW) 1,872 6.7 -6.5°
Maximum altitude 17:49:12 26° 1° (N) 1,129 4.5 -7.1°
Drops below altitude 10° 17:52:50 10° 60° (ENE) 1,875 5.1 -7.7°
Enters shadow 17:53:43 - 65° (ENE) 2,173 5.3 -7.9°
